Northeast Philadelphia, PA

2:05 AM EDT on March 26, 2017 (GMT -0400)
Northeast Philadelphia

Weather History for KPNE - August, 2014

Change the Weather History Date:

Thursday, August 14, 2014

  Actual Average Record
Temperature  
Mean Temperature 71 °F -  
Max Temperature 80 °F 83 °F 99 °F (2002)
Min Temperature 62 °F 65 °F 59 °F (1996)
Cooling Degree Days 6    
Growing Degree Days 21 (Base 50)    
Moisture  
Dew Point 53 °F    
Average Humidity 58    
Maximum Humidity 88    
Minimum Humidity 35    
Precipitation  
Precipitation 0.16 in - - ()
Sea Level Pressure  
Sea Level Pressure 29.89 in    
Wind  
Wind Speed 7 mph (WNW)    
Max Wind Speed 13 mph    
Max Gust Speed 20 mph    
Visibility 10 miles    
Events Rain    
Averages and records for this station are not official NWS values.
T = Trace of Precipitation, MM = Missing Value Source: NWS Daily Summary

Daily Weather History Graph

Daily Weather History Graph

Search for Another Location

Airport or City:

Trip Planner

Search our weather history database for the weather conditions in past years. The results will help you decide how hot, cold, wet, or windy it might be!

Date:

Astronomy

Aug. 14, 2014 Rise Set
Actual Time 6:10 AM EDT 7:58 PM EDT
Civil Twilight 5:41 AM EDT 8:27 PM EDT
Nautical Twilight 5:05 AM EDT 9:02 PM EDT
Astronomical Twilight 4:27 AM EDT 9:40 PM EDT
Moon 10:19 PM EDT (8/14) 10:44 AM EDT (8/14)
Length of Visible Light 14h 45m
Length of Day
13h 47m
Waning Gibbous, 79% of the Moon is Illuminated
Aug 14
Waning Gibbous
Aug 17
Last Quarter
Aug 25
New
Sep 2
First Quarter
Sep 8
Full

Hourly Weather History & Observations

Time (EDT) Temp. Dew Point Humidity Pressure Visibility Wind Dir Wind Speed Gust Speed Precip Events Conditions
12:54 AM 70.0 °F 52.0 °F 53% 29.85 in 10.0 mi WNW 11.5 mph - N/A   Clear
1:54 AM 66.9 °F 52.0 °F 59% 29.85 in 10.0 mi West 5.8 mph - N/A   Clear
2:54 AM 66.0 °F 52.0 °F 60% 29.86 in 10.0 mi West 6.9 mph - N/A   Clear
3:54 AM 64.0 °F 51.1 °F 63% 29.86 in 10.0 mi WNW 6.9 mph - N/A   Clear
4:54 AM 63.0 °F 51.1 °F 65% 29.86 in 10.0 mi WNW 8.1 mph - N/A   Clear
5:54 AM 62.1 °F 50.0 °F 65% 29.88 in 10.0 mi WNW 5.8 mph - N/A   Clear
6:54 AM 62.1 °F 51.1 °F 67% 29.92 in 10.0 mi WNW 5.8 mph - N/A   Clear
7:54 AM 64.9 °F 51.1 °F 61% 29.93 in 10.0 mi NW 6.9 mph - N/A   Clear
8:54 AM 68.0 °F 50.0 °F 52% 29.93 in 10.0 mi NW 6.9 mph - N/A   Clear
9:54 AM 71.1 °F 48.9 °F 45% 29.93 in 10.0 mi WNW 3.5 mph - N/A   Clear
10:54 AM 73.0 °F 50.0 °F 44% 29.93 in 10.0 mi West 8.1 mph - N/A   Clear
11:54 AM 75.0 °F 48.9 °F 40% 29.92 in 10.0 mi West 8.1 mph - N/A   Clear
1:54 PM 79.0 °F 51.1 °F 38% 29.89 in 10.0 mi West 11.5 mph - N/A   Mostly Cloudy
2:54 PM 80.1 °F 50.0 °F 35% 29.88 in 10.0 mi West 12.7 mph 19.6 mph N/A   Mostly Cloudy
3:54 PM 79.0 °F 50.0 °F 36% 29.87 in 10.0 mi West 10.4 mph - N/A   Scattered Clouds
4:54 PM 79.0 °F 50.0 °F 36% 29.86 in 10.0 mi WSW 11.5 mph - N/A   Partly Cloudy
5:54 PM 78.1 °F 51.1 °F 39% 29.85 in 10.0 mi SW 10.4 mph 18.4 mph N/A   Mostly Cloudy
6:54 PM 75.9 °F 51.1 °F 42% 29.85 in 10.0 mi West 8.1 mph - N/A   Mostly Cloudy
7:54 PM 66.9 °F 59.0 °F 76% 29.87 in 10.0 mi North 8.1 mph - 0.13 in Rain Rain
8:54 PM 66.0 °F 59.0 °F 78% 29.89 in 10.0 mi Calm Calm - 0.03 in   Overcast
9:54 PM 64.9 °F 61.0 °F 87% 29.90 in 10.0 mi Calm Calm - N/A   Overcast
10:52 PM 64.4 °F 60.8 °F 88% 29.91 in 10.0 mi Calm Calm - N/A   Scattered Clouds
10:54 PM 64.0 °F 60.1 °F 87% 29.91 in 10.0 mi Calm Calm - N/A   Scattered Clouds
11:54 PM 64.0 °F 60.1 °F 87% 29.93 in 10.0 mi Calm Calm - N/A   Partly Cloudy